• en France
  • Liste des pays
  • À 7 jours
  • Température de l'eau
  • Carte satellitaire
  • Carte météo
  • Widgets météo
  • user-avatar
    Se connecter

    Météo par heure à Barisal

    Ce jour, 18 Novembre, Samedi

    Heure Température Précipitation Vent Pression Humidité
    00:00 +25°C° 0 mm 1 m/s 758 mmHg 93%
    01:00 +25°C° 0 mm 1 m/s 758 mmHg 93%
    02:00 +25°C° 0 mm 1 m/s 757 mmHg 93%
    03:00 +25°C° 0 mm 1 m/s 757 mmHg 94%
    04:00 +24°C° 0 mm 2 m/s 757 mmHg 93%
    05:00 +24°C° 0 mm 2 m/s 757 mmHg 93%
    06:00 +25°C° 0 mm 2 m/s 757 mmHg 93%
    07:00 +26°C° 0 mm 2 m/s 758 mmHg 87%
    08:00 +27°C° 0 mm 2 m/s 758 mmHg 81%
    09:00 +29°C° 0 mm 2 m/s 759 mmHg 75%
    10:00 +30°C° 0 mm 1 m/s 758 mmHg 70%
    11:00 +31°C° 0 mm 1 m/s 758 mmHg 65%
    12:00 +33°C° 0 mm 1 m/s 758 mmHg 60%
    13:00 +33°C° 0,3 mm 1 m/s 757 mmHg 61%
    14:00 +32°C° 0,3 mm 1 m/s 757 mmHg 61%
    15:00 +32°C° 0,3 mm 1 m/s 756 mmHg 62%
    16:00 +31°C° 0,2 mm 1 m/s 756 mmHg 67%
    17:00 +30°C° 0,2 mm 1 m/s 756 mmHg 72%
    18:00 +28°C° 0,2 mm 2 m/s 757 mmHg 78%
    19:00 +28°C° 0 mm 2 m/s 757 mmHg 79%
    20:00 +28°C° 0 mm 2 m/s 757 mmHg 80%
    21:00 +27°C° 0 mm 2 m/s 758 mmHg 81%
    22:00 +27°C° 0 mm 2 m/s 758 mmHg 82%
    23:00 +27°C° 0 mm 2 m/s 758 mmHg 83%

    Demain, 19 Novembre, Dimanche

    Heure Température Précipitation Vent Pression Humidité
    00:00 +26°C° 0 mm 2 m/s 758 mmHg 83%
    01:00 +26°C° 0 mm 2 m/s 758 mmHg 84%
    02:00 +26°C° 0 mm 2 m/s 757 mmHg 85%
    03:00 +26°C° 0 mm 2 m/s 757 mmHg 86%
    04:00 +26°C° 0 mm 2 m/s 757 mmHg 86%
    05:00 +25°C° 0 mm 2 m/s 757 mmHg 87%
    06:00 +25°C° 0 mm 2 m/s 757 mmHg 87%
    07:00 +27°C° 0 mm 2 m/s 758 mmHg 82%
    08:00 +28°C° 0 mm 2 m/s 758 mmHg 77%
    09:00 +30°C° 0 mm 2 m/s 759 mmHg 71%
    10:00 +31°C° 0 mm 2 m/s 759 mmHg 67%
    11:00 +32°C° 0 mm 2 m/s 759 mmHg 62%
    12:00 +34°C° 0 mm 2 m/s 758 mmHg 58%
    13:00 +34°C° 0 mm 2 m/s 758 mmHg 57%
    14:00 +34°C° 0 mm 2 m/s 757 mmHg 56%
    15:00 +34°C° 0 mm 2 m/s 756 mmHg 56%
    16:00 +32°C° 0 mm 2 m/s 756 mmHg 59%
    17:00 +30°C° 0 mm 2 m/s 757 mmHg 62%
    18:00 +29°C° 0 mm 2 m/s 757 mmHg 65%
    19:00 +28°C° 0 mm 2 m/s 757 mmHg 65%
    20:00 +28°C° 0 mm 2 m/s 758 mmHg 65%
    21:00 +27°C° 0 mm 2 m/s 758 mmHg 66%
    22:00 +27°C° 0 mm 2 m/s 758 mmHg 66%
    23:00 +27°C° 0 mm 2 m/s 758 mmHg 67%

    Après-demain, 20 Novembre, Lundi

    Heure Température Précipitation Vent Pression Humidité
    00:00 +26°C° 0 mm 2 m/s 758 mmHg 67%
    01:00 +26°C° 0 mm 3 m/s 758 mmHg 69%
    02:00 +25°C° 0 mm 3 m/s 757 mmHg 71%
    03:00 +25°C° 0 mm 3 m/s 757 mmHg 72%
    04:00 +25°C° 0 mm 3 m/s 757 mmHg 73%
    05:00 +25°C° 0 mm 3 m/s 758 mmHg 73%
    06:00 +24°C° 0 mm 2 m/s 758 mmHg 74%
    07:00 +26°C° 0 mm 3 m/s 759 mmHg 69%
    08:00 +27°C° 0 mm 3 m/s 759 mmHg 64%
    09:00 +29°C° 0 mm 3 m/s 760 mmHg 59%
    10:00 +30°C° 0 mm 3 m/s 759 mmHg 54%
    11:00 +31°C° 0 mm 3 m/s 759 mmHg 49%
    12:00 +34°C° 0 mm 4 m/s 758 mmHg 44%
    13:00 +34°C° 0 mm 4 m/s 758 mmHg 44%
    14:00 +34°C° 0 mm 4 m/s 757 mmHg 44%
    15:00 +34°C° 0 mm 4 m/s 756 mmHg 44%
    16:00 +32°C° 0 mm 4 m/s 756 mmHg 48%
    17:00 +29°C° 0 mm 3 m/s 757 mmHg 51%
    18:00 +28°C° 0 mm 2 m/s 757 mmHg 54%
    19:00 +27°C° 0 mm 2 m/s 757 mmHg 55%
    20:00 +27°C° 0 mm 2 m/s 758 mmHg 56%
    21:00 +26°C° 0 mm 2 m/s 758 mmHg 57%
    22:00 +26°C° 0 mm 2 m/s 758 mmHg 58%
    23:00 +25°C° 0 mm 2 m/s 758 mmHg 59%

    21 Novembre, Mardi

    Heure Température Précipitation Vent Pression Humidité
    00:00 +25°C° 0 mm 2 m/s 758 mmHg 60%
    01:00 +24°C° 0 mm 3 m/s 758 mmHg 61%
    02:00 +24°C° 0 mm 3 m/s 757 mmHg 62%
    03:00 +22°C° 0 mm 3 m/s 757 mmHg 63%
    04:00 +22°C° 0 mm 3 m/s 757 mmHg 64%
    05:00 +22°C° 0 mm 3 m/s 758 mmHg 65%
    06:00 +22°C° 0 mm 3 m/s 758 mmHg 66%
    07:00 +23°C° 0 mm 4 m/s 759 mmHg 63%
    08:00 +26°C° 0 mm 4 m/s 759 mmHg 59%
    09:00 +27°C° 0 mm 4 m/s 760 mmHg 56%
    10:00 +29°C° 0 mm 4 m/s 759 mmHg 52%
    11:00 +30°C° 0 mm 4 m/s 759 mmHg 47%
    12:00 +33°C° 0 mm 5 m/s 758 mmHg 43%
    13:00 +33°C° 0 mm 5 m/s 758 mmHg 42%
    14:00 +33°C° 0 mm 4 m/s 757 mmHg 42%
    15:00 +33°C° 0 mm 4 m/s 756 mmHg 42%
    16:00 +30°C° 0 mm 4 m/s 756 mmHg 45%
    17:00 +28°C° 0 mm 3 m/s 756 mmHg 48%
    18:00 +26°C° 0 mm 3 m/s 757 mmHg 50%
    19:00 +25°C° 0 mm 3 m/s 757 mmHg 49%
    20:00 +25°C° 0 mm 3 m/s 758 mmHg 48%
    21:00 +24°C° 0 mm 3 m/s 758 mmHg 47%
    22:00 +22°C° 0 mm 3 m/s 758 mmHg 48%
    23:00 +22°C° 0 mm 3 m/s 758 mmHg 48%

    22 Novembre, Mercredi

    Heure Température Précipitation Vent Pression Humidité
    00:00 +21°C° 0 mm 4 m/s 758 mmHg 49%
    01:00 +21°C° 0 mm 4 m/s 758 mmHg 50%
    02:00 +20°C° 0 mm 4 m/s 757 mmHg 51%
    03:00 +20°C° 0 mm 4 m/s 757 mmHg 52%
    04:00 +19°C° 0 mm 4 m/s 757 mmHg 52%
    05:00 +19°C° 0 mm 3 m/s 758 mmHg 52%
    06:00 +18°C° 0 mm 3 m/s 758 mmHg 52%
    07:00 +20°C° 0 mm 3 m/s 758 mmHg 50%
    08:00 +22°C° 0 mm 3 m/s 759 mmHg 48%
    09:00 +24°C° 0 mm 3 m/s 759 mmHg 46%
    10:00 +26°C° 0 mm 3 m/s 759 mmHg 42%
    11:00 +27°C° 0 mm 3 m/s 758 mmHg 37%
    12:00 +29°C° 0 mm 4 m/s 758 mmHg 33%
    13:00 +29°C° 0 mm 3 m/s 757 mmHg 33%
    14:00 +29°C° 0 mm 3 m/s 757 mmHg 33%
    15:00 +29°C° 0 mm 3 m/s 756 mmHg 34%
    16:00 +27°C° 0 mm 3 m/s 756 mmHg 37%
    17:00 +25°C° 0 mm 2 m/s 756 mmHg 41%
    18:00 +23°C° 0 mm 2 m/s 757 mmHg 45%
    19:00 +21°C° 0 mm 2 m/s 757 mmHg 46%
    20:00 +21°C° 0 mm 2 m/s 758 mmHg 47%
    21:00 +20°C° 0 mm 2 m/s 758 mmHg 48%
    22:00 +20°C° 0 mm 2 m/s 758 mmHg 48%
    23:00 +19°C° 0 mm 3 m/s 758 mmHg 48%

    23 Novembre, Jeudi

    Heure Température Précipitation Vent Pression Humidité
    00:00 +19°C° 0 mm 3 m/s 758 mmHg 49%
    01:00 +19°C° 0 mm 3 m/s 757 mmHg 50%
    02:00 +18°C° 0 mm 3 m/s 757 mmHg 52%
    03:00 +18°C° 0 mm 4 m/s 757 mmHg 54%
    04:00 +18°C° 0 mm 3 m/s 757 mmHg 56%
    05:00 +18°C° 0 mm 3 m/s 757 mmHg 57%
    06:00 +18°C° 0 mm 3 m/s 758 mmHg 59%
    07:00 +20°C° 0 mm 3 m/s 758 mmHg 58%
    08:00 +22°C° 0 mm 3 m/s 759 mmHg 57%
    09:00 +25°C° 0 mm 3 m/s 759 mmHg 56%
    10:00 +26°C° 0 mm 3 m/s 759 mmHg 53%
    11:00 +27°C° 0 mm 3 m/s 758 mmHg 49%
    12:00 +29°C° 0 mm 3 m/s 758 mmHg 46%
    13:00 +29°C° 0 mm 3 m/s 757 mmHg 44%
    14:00 +29°C° 0 mm 3 m/s 757 mmHg 43%
    15:00 +29°C° 0 mm 3 m/s 756 mmHg 42%
    16:00 +27°C° 0 mm 3 m/s 756 mmHg 46%
    17:00 +25°C° 0 mm 3 m/s 757 mmHg 50%
    18:00 +24°C° 0 mm 2 m/s 757 mmHg 53%
    19:00 +23°C° 0 mm 2 m/s 757 mmHg 54%
    20:00 +21°C° 0 mm 2 m/s 758 mmHg 55%
    21:00 +20°C° 0 mm 2 m/s 758 mmHg 56%
    22:00 +20°C° 0 mm 2 m/s 758 mmHg 56%
    23:00 +20°C° 0 mm 3 m/s 758 mmHg 56%
    Voir plus